Other Public Products
Issued by NWS Grand Forks, ND

Home | Current Version | Previous Version | Graphics & Text | Print | Product List | Glossary On
Versions: 1 2 3 4 5 6 7 8 9 10 11 12 13 14 15 16 17 18 19 20 21 22 23 24 25 26 27 28 29 30 31 32 33 34 35 36 37 38 39 40 41 42 43 44 45 46 47 48 49 50
000
FPUS83 KFGF 291831
OPUFGF
PRAIRIE TO PINES WEATHER ROUNDUP
NATIONAL WEATHER SERVICE EASTERN NORTH DAKOTA/GRAND FORKS ND
100 PM CDT WED OCT 29 2014

 **SATELLITE DATA USED TO AUGMENT SKY COVER AT AUTOMATED STATIONS**
 *****  WEATHER ACROSS EASTERN NORTH DAKOTA  *****

CITY           SKY/WX    TMP DP  RH WIND       PRES   REMARKS
GRAND FORKS    CLOUDY    38  27  64 SW5       30.10F
6HR MIN TEMP:  34; 6HR MAX TEMP:  38;

GRAND FORKS AF CLOUDY    38  28  65 VRB6      30.09F
GRAND CITY NWS   N/A     39 N/A N/A S7          N/A
BUXTON           N/A     38  29  69 S8          N/A
DEVILS LAKE    PTSUNNY   41  25  52 S9        30.00F
6HR MIN TEMP:  34; 6HR MAX TEMP:  39;

FARGO          CLOUDY    39  28  64 SW8       30.11F
6HR MIN TEMP:  36; 6HR MAX TEMP:  39;

WAHPETON ARPT  FAIR      36  27  69 CALM      30.12F
$$

 *****  WEATHER ACROSS CENTRAL AND WESTERN NORTH DAKOTA  *****

CITY           SKY/WX    TMP DP  RH WIND       PRES   REMARKS
JAMESTOWN      FAIR      43  30  60 VRB5      30.05F
6HR MIN TEMP:  34; 6HR MAX TEMP:  44;

BISMARCK       CLOUDY    46  31  55 S9        29.98F
6HR MIN TEMP:  23; 6HR MAX TEMP:  47;

MINOT          CLOUDY    43  30  60 SE12      29.92F
6HR MIN TEMP:  29; 6HR MAX TEMP:  43;

MINOT AFB      PTSUNNY   43  33  66 S14       29.91F
6HR MIN TEMP:  29; 6HR MAX TEMP:  43;

GARRISON         N/A     42  32  67 S13       29.93F
6HR MIN TEMP:  30; 6HR MAX TEMP:  42;

WILLISTON      CLOUDY    37  30  75 SW7       29.90S
6HR MIN TEMP:  26; 6HR MAX TEMP:  37;

DICKINSON      CLOUDY    47  28  47 W12       29.91S
6HR MIN TEMP:  26; 6HR MAX TEMP:  47;

HETTINGER      CLOUDY    49  27  42 SW7       29.97S
6HR MIN TEMP:  24; 6HR MAX TEMP:  49;

$$

 *****  OTHER OBSERVATIONS NORTHEAST NORTH DAKOTA  *****

CITY           SKY/WX    TMP DP  RH WIND       PRES   REMARKS
WALHALLA         N/A     39  27  60 S9        30.06F
LANGDON        CLOUDY    36  28  75 SW10      30.03S
CAVALIER       MOCLDY    37  27  65 S6        30.07F
GRAFTON        CLOUDY    37  27  65 S7        30.08F
CANDO          CLOUDY    41  28  60 S12       30.01F
FORT TOTTEN    NOT AVBL
ROLLA          FAIR      37  30  75 S15       29.98F
RUGBY          FAIR      41  30  65 S12       29.97F
 ***** THE ABOVE OBSERVATIONS ARE NON NWS ARE NOT QUALITY
        CONTROLLED AND MAY MIS-REPORT RAIN FOR SNOW...
$$

 *****  OTHER OBSERVATIONS SOUTHEAST NORTH DAKOTA *****

CITY           SKY/WX    TMP DP  RH WIND       PRES   REMARKS
COOPERSTOWN    NOT AVBL
VALLEY CITY    MOCLDY    39  32  75 S6        30.07F
OAKES            N/A     43  32  65 S8        30.08F
GWINNER        CLOUDY    43  30  61 SE5       30.11F
BUFFALO        NOT AVBL
WYNDMERE         N/A     41  28  60 SW6         N/A
 ***** THE ABOVE OBSERVATIONS ARE NON NWS ARE NOT QUALITY
       CONTROLLED AND MAY MIS-REPORT RAIN FOR SNOW...
$$

  *****  WEATHER ACROSS NORTHERN MINNESOTA  *****

CITY           SKY/WX    TMP DP  RH WIND       PRES   REMARKS
FLAG ISLAND    CLOUDY    36  32  87 SW3       30.05S
WARROAD        CLOUDY    36  34  93 SW5       30.07S
ROSEAU         CLOUDY    36  30  80 W7        30.07F
HALLOCK          N/A     37  28  70 CALM      30.08F
THF RVR FALLS  CLOUDY    36  30  80 SW9       30.09F
6HR MIN TEMP:  32; 6HR MAX TEMP:  36;

HALSTAD          N/A     39  27  62 SW6         N/A
FOSSTON        CLOUDY    36  30  80 CALM      30.10S
BAUDETTE       CLOUDY    36  33  89 W5        30.07F
6HR MIN TEMP:  34; 6HR MAX TEMP:  36;

WASKISH        CLOUDY    36  34  93 CALM      30.07F
CROOKSTON      CLOUDY    37  28  70 W5        30.11F
$$
  *****  WEATHER ACROSS CENTRAL AND WEST MINNESOTA  *****

CITY           SKY/WX    TMP DP  RH WIND       PRES   REMARKS
BEMIDJI        CLOUDY    34  31  89 SW5       30.07F
PARK RAPIDS    CLOUDY    35  30  82 NW9       30.11F
6HR MIN TEMP:  32; 6HR MAX TEMP:  35;

WADENA         CLOUDY    36  28  75 NW6       30.11F
DETROIT LAKES  CLOUDY    36  30  80 S5        30.11F
MOORHEAD       CLOUDY    39  30  70 SW7       30.12F
FERGUS FALLS   CLOUDY    36  27  69 CALM      30.14F
ELBOW LAKE     CLOUDY    36  29  77 SW5       30.13F
6HR MIN TEMP:  33; 6HR MAX TEMP:  35;

MORRIS MN      PTSUNNY   37  30  75 CALM      30.14F
STAPLES        CLOUDY    36  30  80 W7        30.12F
WHEATON        FAIR      37  27  65 CALM      30.15F
$$
  *****  WEATHER ELSEWHERE ACROSS MINNESOTA  *****

CITY           SKY/WX    TMP DP  RH WIND       PRES   REMARKS
DULUTH         PTSUNNY   40  31  70 NW10      30.07S
6HR MIN TEMP:  36; 6HR MAX TEMP:  40; 6HR PCP: TRACE;

INTRNTL FALLS  CLOUDY    37  35  92 W8        30.06S
6HR MIN TEMP:  34; 6HR MAX TEMP:  38; 6HR PCP: TRACE;

ELY            CLOUDY    37  34  87 W6        30.05R
CLOQUET        CLOUDY    39  34  81 W8        30.08S
BRAINERD       CLOUDY    35  31  85 SW7       30.13F
6HR MIN TEMP:  34; 6HR MAX TEMP:  36;

HIBBING        CLOUDY    40  32  73 W7        30.07F
6HR MIN TEMP:  33; 6HR MAX TEMP:  41;

ALEXANDRIA     CLOUDY    36  29  75 NW7       30.15F
6HR MIN TEMP:  34; 6HR MAX TEMP:  36;

SAINT CLOUD    CLOUDY    40  31  70 W8        30.15S
6HR MIN TEMP:  37; 6HR MAX TEMP:  40;

MINNEAPOLIS    CLOUDY    42  31  64 W7        30.15F
6HR MIN TEMP:  37; 6HR MAX TEMP:  43;

$$

  *****  WEATHER ACROSS SOUTH DAKOTA  *****

CITY           SKY/WX    TMP DP  RH WIND       PRES   REMARKS
SIOUX FALLS    FAIR      46  33  60 VRB3      30.16F
6HR MIN TEMP:  31; 6HR MAX TEMP:  46;

BROOKINGS      NOT AVBL
WATERTOWN      FAIR      39  30  70 SW7       30.11F
6HR MIN TEMP:  25; 6HR MAX TEMP:  40;

HURON          SUNNY     47  30  51 S10       30.12F
6HR MIN TEMP:  28; 6HR MAX TEMP:  47;

SISSETON         N/A     41  30  65 S3        30.12F
ABERDEEN       SUNNY     47  30  51 S12       30.10F
6HR MIN TEMP:  34; 6HR MAX TEMP:  47;

MITCHELL       SUNNY     47  32  56 SE7       30.15F
PIERRE         SUNNY     52  29  41 SE16      30.02F
6HR MIN TEMP:  17; 6HR MAX TEMP:  52;

MOBRIDGE       SUNNY     50  32  50 S17       30.00F
RAPID CITY     SUNNY     59  26  28 S3        29.98F
6HR MIN TEMP:  25; 6HR MAX TEMP:  59;

$$

  *****  SOME WEATHER IN NEARBY STATES *****

CITY           SKY/WX    TMP DP  RH WIND       PRES   REMARKS
GLASGOW MT     CLOUDY    45  34  65 W10       29.89S
6HR MIN TEMP:  29; 6HR MAX TEMP:  45;

GREAT FALLS MT SUNNY     59  30  33 W25       29.99S
6HR MIN TEMP:  46; 6HR MAX TEMP:  59;

CHEYENNE WY    MOSUNNY   60  21  22 W26G40    30.16S
6HR MIN TEMP:  42; 6HR MAX TEMP:  61;

SCOTTSBLUFF NE SUNNY     59  25  27 SW3       30.06F
6HR MIN TEMP:  25; 6HR MAX TEMP:  60;

OMAHA NE       FAIR      50  32  50 VRB3      30.23F
6HR MIN TEMP:  33; 6HR MAX TEMP:  51;

DES MOINES IA  FAIR      51  33  50 N8        30.20F
6HR MIN TEMP:  44; 6HR MAX TEMP:  51;

DAVENPORT IA   CLOUDY    49  30  48 W13       30.14F
6HR MIN TEMP:  41; 6HR MAX TEMP:  49;

CHICAGO IL     CLOUDY    46  32  58 W9        30.07F
6HR MIN TEMP:  44; 6HR MAX TEMP:  47;

EAU CLAIRE WI  CLOUDY    44  31  60 W7        30.11F
6HR MIN TEMP:  39; 6HR MAX TEMP:  44;

LA CROSSE WI   CLOUDY    47  32  56 NW9       30.13F
6HR MIN TEMP:  42; 6HR MAX TEMP:  46;

$$

  *****  SOME NATIONAL WEATHER *****

CITY           SKY/WX    TMP DP  RH WIND       PRES   REMARKS
LA GUARDIA NY  CLOUDY    70  54  56 NW16G22   29.82F



USA.gov is the U.S. government's official web portal to all federal, state and local government web resources and services.